STARLINK-31814, 59802

Orbit data source: Space-Track

STARLINK-31814, 59802 is a payload satellite owned by SpaceX/Seattle (US) in LEO that was launched on Sat, 18 May 2024 UTC via an FALCON 9 launch vehicle from the Air Force Eastern Test Range (AFETR). Payload-class satellites include a variety of spacecraft equipped with specific instruments for various scientific and technological missions. These include communications satellites like Starlink; space stations such as the ISS; scientific satellites like the Hubble; Earth observation satellites from companies like Planet Labs, Umbra, and HawkEye 360; GPS; miniature CubeSats for education and research; and military/defense satellites.

Loading next visibility...
Identifier
59802, 2024-093W
Orbit
LEO
Country
Flag of USUS
Related business
Manufacturer
SpaceX/Seattle
Mission
Operational spacecraft
Bus & Motor
STARLINK V2M, Unknown motor
Mass
730 kg wet, ~700 kg dry
Launch date (UTC)
2024-05-18 (1 year ago)
Launch vehicle
FALCON 9
Launch site
Air Force Eastern Test Range (AFETR)
Object type
Payload
Rocket body
Debris
Shape & HBR
Unknown shape, 17.7 m
Radar Cross Section
Large (>1 m²)

Expand to show TLE details & history
Last TLE update: 12 hours ago

TLE from 12 hours ago
0 STARLINK-31814
1 59802U 24093W   25292.27967100  .00001153  00000-0  51413-4 0  9992
2 59802  43.0046 287.9152 0000909 259.0612 101.0137 15.27580983 81066
Epoch: 2025-10-19T06:42Z
TLE epoch observation values (Epoch: 2025-10-19T06:42:43.574Z)
Latitude
-0.00005°
Longitude
159.23498°
Altitude
482.941 km
Speed
7.626 km/s
True Right ascension
19h 11m 39s
True Declination
0° 00' 00"
Sunlit
Object was in daylight at epoch
Visualization orbit readout
Latitude
Unknown
Longitude
Unknown
Altitude
Unknown
Speed
Unknown
Apparent Right ascension
Unknown
Apparent Declination
Unknown
Sunlit
N/A
Visualization observer readout
Local Sidereal Time
13:37:38
Azimuth
Unknown
Elevation
Unknown
Doppler factor
Unknown
Orbital elements
Apogee altitude
485.614 km
Perigee altitude
484.367 km
Semi-major axis
6,863.128 km
Eccentricity
0.00009
Inclination
43.0046°
RAAN
287.9152°
Arg. of periapsis
259.0612°
True anomaly
101.02392°
Mean anomaly
101.0137°
Eccentric anomaly
101.01881°
Mean motion
3.81733 °/min
Orbital period
94.31 mins
BSTAR
0.000051413
Loading maneuver chart data...
Computing Atmospheric mass density...
Loading historical data...
Loading historical data...
Loading historical data...
Loading historical data...
Loading historical data...
Loading historical data...
Loading historical data...

Documentation

Showing up to 5 results
|